SL-16 DEB, 18527

Orbit data source: Space-Track

SL-16 DEB, 18527 is space debris in LEO originally from a launch on Wed, 18 Mar 1987 UTC launched from the Tyuratam Missile And Space Complex (TTMTR). Debris objects in space refer to the collection of defunct objects orbiting the Earth. Examples of debris include non-operational satellites, rocket bodies, and fragments generated from explosions, collisions, or faulty payload assembly.

Loading next visibility...
SL-16 DEB details
Identifier
18527, 1987-027E
Orbit
LEO
Last TLE update9 hours ago
Origin
Flag of CISUNKS (CIS)
ManufacturerYuzhnoe
MissionSpacecraft
Bus & MotorSEP MOTOR COVER, Unknown motor
Mass~0 kg wet, ~1 kg dry
Launch date (UTC)
1987-03-18 (38 years ago)
Launch vehicleUnknown
Launch site
Tyuratam Missile And Space Complex (TTMTR)
Object type
Payload
Rocket body
Debris
Shape & HBRUnknown
Radar Cross SectionSmall (<0.1 m²)

Expand to show TLE details & history

TLE from 9 hours ago
0 SL-16 DEB
1 18527U 87027E   25018.59555937  .00000144  00000-0  16986-3 0  9993
2 18527  70.9949 216.4541 0196670 281.6785  76.2307 13.75626316898428
Epoch: 2025-01-18T14:17Z
Definitive object data (Epoch: 2025-01-18T14:17:36.329Z)
Latitude0.00001°
Longitude-116.18985°
Altitude950.055 km
Speed7.393 km/s
True Right ascension14h 25m 48s
True Declination0° 00' 00"
Sunlit
Object was in daylight at TLE epoch
Visualization TLE readout
Latitude39.937°
Longitude46.36686°
Altitude1,100.309 km
Speed7.248 km/s
Apparent Right ascension04h 07m 15s
Apparent Declination29° 33' 18"
Sunlit
Object is in daylight
Visualization observer readout
Local Sidereal Time00:36:08
Azimuth86.639° E
Elevation46.061°
Doppler factor1
Orbital elements
Apogee altitude1,122.065 km
Perigee altitude832.742 km
Semi-major axis7,355.541 km
Eccentricity0.019667
Inclination70.9949°
RAAN216.4541°
Arg. of periapsis281.6785°
True anomaly78.43194°
Mean anomaly76.2307°
Eccentric anomaly77.3301°
Mean motion3.4405 °/min
BSTAR0.00016986
Orbital period104.64 mins
Loading maneuver chart data...
Loading historical data...
Loading historical data...
Loading historical data...
Loading historical data...
Loading historical data...
Loading historical data...
Loading historical data...

SL-16 DEB Visibility forecast

Observer location: undefined°, undefined

Span
Click to sort rows by Start time (UTC) header in descending order
Start Az.
Max El. time (UTC)
Max El. Az.
Max El.
End time (UTC)
End Az.
5 mins2025-01-18 23:42:05.999Z87.242° E2025-01-18 23:42:05.999Z87.242° E35.709°2025-01-18 23:47:05.999Z133.37° SE
10 mins2025-01-19 01:23:05.999Z311.187° NW2025-01-19 01:28:05.999Z255.387° W26.939°2025-01-19 01:33:05.999Z203.273° SW
8 mins2025-01-19 13:07:05.999Z134.78° SE2025-01-19 13:10:05.999Z99.484° ESE22.146°2025-01-19 13:15:05.999Z50.018° ENE
11 mins2025-01-19 14:52:05.999Z223.656° SW2025-01-19 14:57:05.999Z311.984° NW40.177°2025-01-19 15:03:05.999Z15.444° NNE
4 mins2025-01-19 16:44:05.999Z306.982° NW2025-01-19 16:45:05.999Z315.996° NNW12.201°2025-01-19 16:48:05.999Z342.146° N
8 mins2025-01-19 22:16:05.999Z11.544° NNE2025-01-19 22:20:05.999Z50.116° ENE17.883°2025-01-19 22:24:05.999Z87.179° E
|